• In Russia
  • List of Countries
  • For 7 days
  • Water Temperature
  • Weather Map
  • Weather Widgets
  • user-avatar
    Login

    Hourly Weather Canillo

    Today, 20 January, Monday

    Time Temperature Precipitation Wind Pressure Humidity
    00:00 -11°C° 0 mm 4 mps 620 mmHg 81%
    01:00 -10°C° 0 mm 3 mps 619 mmHg 80%
    02:00 -10°C° 0 mm 3 mps 619 mmHg 78%
    03:00 -10°C° 0 mm 3 mps 619 mmHg 77%
    04:00 -10°C° 0 mm 3 mps 619 mmHg 78%
    05:00 -10°C° 0 mm 3 mps 619 mmHg 79%
    06:00 -9°C° 0 mm 2 mps 619 mmHg 80%
    07:00 -9°C° 0.1 mm 3 mps 620 mmHg 79%
    08:00 -8°C° 0.1 mm 3 mps 621 mmHg 78%
    09:00 -7°C° 0.1 mm 3 mps 621 mmHg 77%
    10:00 -6°C° 0.1 mm 3 mps 622 mmHg 75%
    11:00 -5°C° 0.1 mm 3 mps 622 mmHg 73%
    12:00 -4°C° 0.1 mm 3 mps 622 mmHg 71%
    13:00 -4°C° 0 mm 3 mps 622 mmHg 73%
    14:00 -4°C° 0 mm 3 mps 622 mmHg 74%
    15:00 -4°C° 0 mm 3 mps 622 mmHg 75%
    16:00 -5°C° 0 mm 3 mps 621 mmHg 79%
    17:00 -6°C° 0 mm 3 mps 621 mmHg 83%
    18:00 -6°C° 0 mm 2 mps 621 mmHg 86%
    19:00 -6°C° 0 mm 2 mps 621 mmHg 85%
    20:00 -6°C° 0 mm 2 mps 621 mmHg 84%
    21:00 -6°C° 0 mm 2 mps 621 mmHg 82%
    22:00 -6°C° 0.1 mm 2 mps 621 mmHg 82%
    23:00 -6°C° 0.1 mm 2 mps 621 mmHg 81%

    Tomorrow, 21 January, Tuesday

    Time Temperature Precipitation Wind Pressure Humidity
    00:00 -6°C° 0.1 mm 2 mps 621 mmHg 81%
    01:00 -6°C° 0.5 mm 2 mps 620 mmHg 83%
    02:00 -5°C° 0.5 mm 2 mps 620 mmHg 84%
    03:00 -5°C° 0.5 mm 2 mps 620 mmHg 86%
    04:00 -5°C° 1 mm 2 mps 620 mmHg 88%
    05:00 -5°C° 1 mm 2 mps 620 mmHg 90%
    06:00 -5°C° 1 mm 2 mps 620 mmHg 92%
    07:00 -4°C° 0.9 mm 2 mps 620 mmHg 91%
    08:00 -3°C° 0.9 mm 2 mps 621 mmHg 90%
    09:00 -2°C° 0.9 mm 2 mps 621 mmHg 89%
    10:00 -1°C° 0.8 mm 2 mps 622 mmHg 88%
    11:00 0°C° 0.8 mm 3 mps 622 mmHg 86%
    12:00 0°C° 0.8 mm 3 mps 622 mmHg 85%
    13:00 0°C° 0.7 mm 3 mps 621 mmHg 86%
    14:00 0°C° 0.7 mm 3 mps 621 mmHg 88%
    15:00 +1°C° 0.7 mm 2 mps 621 mmHg 89%
    16:00 -1°C° 1 mm 2 mps 620 mmHg 92%
    17:00 -2°C° 1 mm 2 mps 620 mmHg 94%
    18:00 -2°C° 1 mm 2 mps 619 mmHg 96%
    19:00 -2°C° 1.3 mm 2 mps 619 mmHg 96%
    20:00 -2°C° 1.3 mm 2 mps 619 mmHg 96%
    21:00 -2°C° 1.3 mm 2 mps 620 mmHg 96%
    22:00 -2°C° 3.2 mm 2 mps 619 mmHg 96%
    23:00 -2°C° 3.2 mm 2 mps 619 mmHg 97%

    Day after tomorrow, 22 January, Wednesday

    Time Temperature Precipitation Wind Pressure Humidity
    00:00 -2°C° 3.2 mm 2 mps 619 mmHg 97%
    01:00 -2°C° 4.4 mm 2 mps 619 mmHg 98%
    02:00 -2°C° 4.4 mm 2 mps 618 mmHg 98%
    03:00 -2°C° 4.4 mm 2 mps 618 mmHg 98%
    04:00 -2°C° 4.6 mm 2 mps 618 mmHg 98%
    05:00 0°C° 4.6 mm 1 mps 618 mmHg 98%
    06:00 +1°C° 4.6 mm 1 mps 618 mmHg 99%
    07:00 +1°C° 3.2 mm 1 mps 618 mmHg 99%
    08:00 +1°C° 3.2 mm 1 mps 618 mmHg 99%
    09:00 +1°C° 3.2 mm 1 mps 618 mmHg 99%
    10:00 +1°C° 4.2 mm 1 mps 618 mmHg 99%
    11:00 +1°C° 4.2 mm 1 mps 617 mmHg 99%
    12:00 +1°C° 4.2 mm 1 mps 617 mmHg 99%
    13:00 -1°C° 3.7 mm 2 mps 617 mmHg 99%
    14:00 -1°C° 3.7 mm 2 mps 616 mmHg 99%
    15:00 -1°C° 3.7 mm 2 mps 616 mmHg 99%
    16:00 -1°C° 4.3 mm 2 mps 616 mmHg 99%
    17:00 -1°C° 4.3 mm 2 mps 616 mmHg 99%
    18:00 -1°C° 4.3 mm 2 mps 615 mmHg 99%
    19:00 -1°C° 6.2 mm 2 mps 616 mmHg 99%
    20:00 -1°C° 6.2 mm 2 mps 616 mmHg 99%
    21:00 -1°C° 6.2 mm 2 mps 616 mmHg 99%
    22:00 -1°C° 1.5 mm 2 mps 616 mmHg 98%
    23:00 -2°C° 1.5 mm 2 mps 616 mmHg 97%

    23 January, Thursday

    Time Temperature Precipitation Wind Pressure Humidity
    00:00 -2°C° 1.5 mm 2 mps 616 mmHg 96%
    01:00 -2°C° 0.1 mm 2 mps 616 mmHg 96%
    02:00 -2°C° 0.1 mm 2 mps 617 mmHg 96%
    03:00 -2°C° 0.1 mm 2 mps 617 mmHg 95%
    04:00 -3°C° 0 mm 2 mps 616 mmHg 95%
    05:00 -3°C° 0 mm 2 mps 616 mmHg 94%
    06:00 -4°C° 0 mm 2 mps 616 mmHg 93%
    07:00 -3°C° 0 mm 2 mps 617 mmHg 91%
    08:00 -3°C° 0 mm 2 mps 617 mmHg 89%
    09:00 0°C° 0 mm 1 mps 618 mmHg 86%
    10:00 +1°C° 0 mm 1 mps 618 mmHg 89%
    11:00 +2°C° 0 mm 1 mps 618 mmHg 91%
    12:00 +2°C° 0 mm 1 mps 619 mmHg 93%
    13:00 +2°C° 0 mm 1 mps 618 mmHg 93%
    14:00 +2°C° 0 mm 1 mps 618 mmHg 93%
    15:00 +2°C° 0 mm 1 mps 618 mmHg 93%
    16:00 0°C° 0 mm 1 mps 617 mmHg 89%
    17:00 -4°C° 0 mm 2 mps 617 mmHg 86%
    18:00 -5°C° 0 mm 2 mps 616 mmHg 83%
    19:00 -5°C° 0 mm 2 mps 616 mmHg 80%
    20:00 -5°C° 0 mm 2 mps 616 mmHg 76%
    21:00 -6°C° 0 mm 2 mps 616 mmHg 73%
    22:00 -6°C° 0 mm 2 mps 616 mmHg 73%
    23:00 -5°C° 0 mm 2 mps 616 mmHg 72%

    24 January, Friday

    Time Temperature Precipitation Wind Pressure Humidity
    00:00 -5°C° 0 mm 2 mps 616 mmHg 72%
    01:00 -6°C° 0 mm 2 mps 616 mmHg 71%
    02:00 -6°C° 0 mm 2 mps 616 mmHg 70%
    03:00 -6°C° 0 mm 2 mps 616 mmHg 70%
    04:00 -6°C° 0 mm 2 mps 616 mmHg 68%
    05:00 -6°C° 0 mm 2 mps 615 mmHg 67%
    06:00 -6°C° 0 mm 2 mps 615 mmHg 66%
    07:00 -5°C° 0 mm 2 mps 616 mmHg 69%
    08:00 -2°C° 0 mm 1 mps 617 mmHg 71%
    09:00 -1°C° 0 mm 1 mps 617 mmHg 74%
    10:00 0°C° 0 mm 1 mps 617 mmHg 80%
    11:00 +1°C° 0 mm 1 mps 618 mmHg 86%
    12:00 +2°C° 0 mm 0 mps 618 mmHg 92%
    13:00 +1°C° 0 mm 0 mps 618 mmHg 92%
    14:00 +1°C° 0 mm 0 mps 618 mmHg 93%
    15:00 +1°C° 0 mm 0 mps 617 mmHg 94%
    16:00 +1°C° 0 mm 1 mps 617 mmHg 91%
    17:00 -1°C° 0 mm 1 mps 616 mmHg 87%
    18:00 -2°C° 0 mm 1 mps 616 mmHg 84%
    19:00 -3°C° 0 mm 1 mps 616 mmHg 82%
    20:00 -3°C° 0 mm 1 mps 616 mmHg 81%
    21:00 -5°C° 0 mm 2 mps 616 mmHg 79%
    22:00 -5°C° 0 mm 2 mps 616 mmHg 81%
    23:00 -5°C° 0 mm 2 mps 616 mmHg 82%

    25 January, Saturday

    Time Temperature Precipitation Wind Pressure Humidity
    00:00 -5°C° 0 mm 2 mps 616 mmHg 83%
    01:00 -5°C° 0 mm 2 mps 616 mmHg 84%
    02:00 -5°C° 0 mm 2 mps 616 mmHg 85%
    03:00 -5°C° 0 mm 2 mps 616 mmHg 85%
    04:00 -6°C° 0 mm 2 mps 616 mmHg 85%
    05:00 -4°C° 0 mm 1 mps 615 mmHg 85%
    06:00 -4°C° 0 mm 1 mps 615 mmHg 85%
    07:00 -3°C° 0 mm 1 mps 616 mmHg 86%
    08:00 -2°C° 0 mm 1 mps 617 mmHg 87%
    09:00 0°C° 0 mm 1 mps 618 mmHg 88%
    10:00 +1°C° 0 mm 1 mps 618 mmHg 90%
    11:00 +1°C° 0 mm 1 mps 618 mmHg 91%
    12:00 +2°C° 0 mm 1 mps 618 mmHg 93%
    13:00 +2°C° 0 mm 1 mps 618 mmHg 93%
    14:00 +2°C° 0 mm 1 mps 617 mmHg 94%
    15:00 +1°C° 0 mm 0 mps 617 mmHg 94%
    16:00 0°C° 0 mm 0 mps 617 mmHg 94%
    17:00 -1°C° 0 mm 0 mps 617 mmHg 93%
    18:00 0°C° 0 mm 1 mps 617 mmHg 93%
    19:00 -1°C° 0 mm 1 mps 617 mmHg 91%
    20:00 -2°C° 0 mm 1 mps 617 mmHg 90%
    21:00 -3°C° 0 mm 1 mps 617 mmHg 88%
    22:00 -3°C° 0 mm 1 mps 617 mmHg 87%
    23:00 -3°C° 0 mm 1 mps 617 mmHg 87%
    Show more